Location: Oriwa
(40.7500°S, 175.3333°E)
Time: 14:12:34
(UTC+00:00)

MOS 1 Rocket - Pass Details

Date: 03 February 2023
Orbit: 612 x 827 km, 97.5° (Epoch: 30 March)

Event Time Altitude Azimuth Distance (km) Brightness Sun altitude
Rises 13:42:57 0° 169° (S) 2,962 7.7 -30.5°
Reaches altitude 10° 13:45:12 10° 170° (S) 2,028 6.6 -30.3°
Enters shadow 13:47:58 39° 173° (S) 954 4.4 -30.1°
